Location: Strawberry
(45.6646°N, 111.9596°W)
Time: 12:55:25
(UTC+00:00)

Transit 4A - Pass Details

Date: 03 October 2022
Orbit: 871 x 973 km, 66.8° (Epoch: 26 November)

Event Time Altitude Azimuth Distance (km) Brightness Sun altitude
Rises 12:23:27 0° 330° (NNW) 3,512 10.7 -12.2°
Reaches altitude 10° 12:26:30 10° 345° (NNW) 2,555 10.1 -11.7°
Maximum altitude 12:31:10 24° 38° (NE) 1,756 9.9 -10.9°
Drops below altitude 10° 12:35:47 10° 90° (E) 2,522 11.8 -10.1°
Sets 12:38:46 0° 105° (ESE) 3,455 12.5 -9.6°
